This demonstration page uses our WeatherBlox Daily Observations layout. Learn more.

Left ArrowRight Arrow

Hourly Observations for March 29, 2020

Temp ( °F °C ) Dew Point ( °F °C ) Humidity (%) Winds ( mph kmh ) Pressure ( in mb ) Visibility ( mi km ) Precip ( " mm )
12:54 am 00:54 Clear 43 6.1 34 1.1 71 71 WNW 17 28 29.75 1008 10 16.0934 0 0
1:54 am 01:54 Partly Cloudy 43 6.1 35 1.7 74 74 WNW 17 28 29.78 1009 10 16.0934 0 0
2:54 am 02:54 Clear 42 5.6 34 1.1 73 73 WNW 15 24 29.8 1009 10 16.0934 0 0
3:54 am 03:54 Clear 42 5.6 32 0 68 68 WNW 18 30 29.82 1010 10 16.0934 0 0
4:54 am 04:54 Clear 41 5 30 -1.1 65 65 WNW 13 20 29.84 1011 10 16.0934 0 0
5:54 am 05:54 Clear 39 3.9 30 -1.1 70 70 W 10 17 29.88 1012 10 16.0934 0 0
6:54 am 06:54 Clear 39 3.9 28 -2.2 65 65 WNW 7 11 29.91 1013 10 16.0934 0 0
7:54 am 07:54 Sunny 42 5.6 28 -2.2 58 58 WNW 13 20 29.95 1014 10 16.0934 0 0
8:54 am 08:54 Sunny 46 7.8 29 -1.7 51 51 W 14 22 29.97 1015 10 16.0934 0 0
9:54 am 09:54 Sunny 50 10 31 -0.6 48 48 WNW 15 24 29.99 1016 10 16.0934 0 0
10:54 am 10:54 Sunny 55 12.8 30 -1.1 38 38 NW 20 31 30.01 1016 10 16.0934 0 0
11:54 am 11:54 Sunny 58 14.4 31 -0.6 36 36 NW 18 30 30.03 1017 10 16.0934 0 0
12:54 pm 12:54 Sunny 61 16.1 32 0 34 34 NW 13 20 30.04 1017 10 16.0934 0 0
1:54 pm 13:54 Sunny 62 16.7 29 -1.7 29 29 NW 15 24 30.04 1017 10 16.0934 0 0
2:54 pm 14:54 Sunny 64 17.8 29 -1.7 27 27 NNW 16 26 30.04 1017 10 16.0934 0 0
3:54 pm 15:54 Mostly Cloudy 66 18.9 29 -1.7 25 25 NW 18 30 30.04 1017 10 16.0934 0 0
4:54 pm 16:54 Mostly Sunny 65 18.3 30 -1.1 27 27 WNW 15 24 30.05 1018 10 16.0934 0 0
5:54 pm 17:54 Partly Cloudy 63 17.2 29 -1.7 28 28 NW 9 15 30.06 1018 10 16.0934 0 0
6:54 pm 18:54 Mostly Sunny 63 17.2 30 -1.1 29 29 NNW 7 11 30.07 1018 10 16.0934 0 0
7:54 pm 19:54 Clear 52 11.1 31 -0.6 45 45 NNE 6 9 30.1 1019 10 16.0934 0 0
8:54 pm 20:54 Clear 49 9.4 31 -0.6 50 50 Calm 30.12 1020 10 16.0934 0 0
9:54 pm 21:54 Clear 49 9.4 34 1.1 56 56 Calm 30.14 1021 10 16.0934 0 0
10:54 pm 22:54 Clear 47 8.3 33 0.6 59 59 Calm 30.15 1021 10 16.0934 0 0
11:54 pm 23:54 Clear 42 5.6 32 0 68 68 Calm 30.16 1021 10 16.0934 0 0

Powered by AerisWeather